Royal Flush POKER88 Online - DEWA POKER Indonesia Terpercaya

Jackpot

Texas Poker Multi Jackpot System

Kini Telah hadir Jackpot SUPER ROYAL FLUSH

Kini Telah hadir Jackpot 2000 (khusus table VIP keatas).

Ikutilah global jackpot yang tersedia di system kami, dengan system jackpot terbaru dan pertama di indonesia, anda dapat membeli jackpot dengan harga 100 rupiah saja dan menangkan hadiahnya hingga puluhan juta rupiah.

Jackpot bukanlah suatu keharusan untuk dibeli, namun kami memberikan suatu fitur tambahan untuk member tercinta dari www.1xroyal.com.

Terdapat tiga pilihan harga jackpot yang bisa anda beli yaitu :100,500,1000 dan 2000(khusus table VIP Keatas) rupiah.

Hadiah dari Multi jackpot system www.1xroyal.com

  1. full house x 10 harga jackpot yang anda beli.
      (contoh:anda membeli 1000 maka:1000 X10 = 10.000)
  2. four of kind x 250 harga jackpot yang anda beli
      (contoh:anda membeli 1000 maka:1000 X250 = 250.000)
  3. Straight flush x 1200
      (contoh:anda membeli 1000 maka:1000 X1200 = 1.200.000)
  4. Royal flush x 10000 harga jackpot yang anda beli
      (contoh:anda membeli 1000 maka:1000 X10000 = 10.000.000)
  5. SUPER ROYAL FLUSH x 30000 harga jackpot yang anda beli
      (contoh:anda membeli 1000 maka:1000 X30000 = 30.000.000)

Kondisi kartu

  1. full house adalah kondisi kartu dimana kartu anda dan kartu tengah dengan total 7 kartu bisa mendapatkan nilai 5 kartu dengan kombinasi 1 tris(three of kind) dan 1 pair, contoh 3 kartu 10 dan 2 kartu 5
  2. Four of kind adalah kondisi kartu dimana kartu anda dan kartu tengah dengan total 7 kartu bisa mendapatkan nilai 5 kartu dengan kombinasi 4 kartu yang sama jumlah dan 1 kartu apapun juga contoh anda mendapatkan 4 buah kartu angka 3 dan 1 kartu apapun.
  3. Staright flush adalah kondisi kartu dimana kartu anda dan kartu tengah dengan total 7 kartu bisa mendapatkan nilai 5 kartu dengan kombinasi seri / staright dengan kembang yang sama contoh : urutan kartu dari angka 5, 6, 7, 8 , 9 10 dengan kembang yg sama misalnya as hati
  4. Royal flush adalah kondisi kartu dimana kartu anda dan kartu tengah dengan total 7 kartu bisa mendapatkan nilai 5 kartu dengan kombinasi seri / staright dengan kembang yang sama tetapi kartu tersebut haruslah dimulai dari 10. contoh 10, Queen, Jack, King dan aces dengan kembang yang sama
  5. Super Royal flush adalah kondisi kartu dimana Kedua kartu anda digabung dengan 3 kartu pertama meja haruslah royal flush. contoh kartu anda 10,Queen kembang sama dan 3 kartu pertama meja adalah Jack, King dan aces dengan kembang yang sama

Demikian adalah penjelasan dari Multi Jackpot www.1xroyal.com terima kasih dan selamat bermain salam hoki dari kami

Texas Poker Jackpot Winner

TOP SUPER ROYAL FLUSH
No.TanggalNamaPriceWin
122/07 05:32SELAMET98Super Royal flush3,000,000
222/07 04:01MABHIRSuper Royal flush6,000,000
322/07 03:37MUMU1003Super Royal flush6,000,000
422/07 03:02KINGRAJSuper Royal flush15,000,000
521/07 23:05MANGKARMANSuper Royal flush6,000,000
TOP ROYAL FLUSH
No.TanggalNamaPriceWin
122/07 09:25DM194021Royal flush10,000,000
222/07 09:18OM_ARUNGRoyal flush2,000,000
322/07 08:25BAMBAM80Royal flush5,000,000
422/07 07:58CHORIDHARoyal flush2,000,000
522/07 07:08CLARISA19Royal flush10,000,000
TOP STRAIGHT FLUSH
No.TanggalNamaPriceWin
122/07 09:18SANGKOT81Straight Flush1,200,000
222/07 09:18JENIUS38Straight Flush600,000
322/07 09:17NCM16687Straight Flush600,000
422/07 09:14NGEDOK95Straight Flush600,000
522/07 09:10TARATINTINStraight Flush120,000
LATEST JACKPOT
No.TanggalNamaPriceWin
122/07 09:26HERMANTTFull House5,000
222/07 09:26KARNA_77Full House1,000
322/07 09:26DAVIN234Full House2,000
422/07 09:26KHONZ78Full House10,000
522/07 09:26YOUGI5Full House2,000
622/07 09:26ASP968Full House2,000
722/07 09:26BREGGENFull House20,000
822/07 09:26GUZTVAMPSFull House2,000
922/07 09:26S4LM4N01Full House2,000
1022/07 09:26DORASI77Full House10,000
1122/07 09:26MV544957Full House2,000
1222/07 09:26BIG_69Full House5,000
1322/07 09:26HSNR182Four Of A Kind250,000
1422/07 09:26ZEIN20Full House2,000
1522/07 09:26XGOCML79BOFull House5,000
1622/07 09:26TERAKAHIRKFull House2,000
1722/07 09:26BE305181Full House20,000
1822/07 09:26DIVA676Full House20,000
1922/07 09:26SUSENO86Full House10,000
2022/07 09:26BUSER27Full House1,000
2122/07 09:26PIYE_JALLFour Of A Kind50,000
2222/07 09:26PARINUNKFull House5,000
2322/07 09:26BIMATOROKFull House2,000
2422/07 09:26JOKONTECFull House10,000
2522/07 09:26ONTONG331Four Of A Kind50,000
2622/07 09:26UNUS199Full House2,000
2722/07 09:26EGADARMAWAFull House5,000
2822/07 09:26Q5FNTEQ0YHFull House5,000
2922/07 09:26T4DSANDI010Four Of A Kind50,000
3022/07 09:26DRAMS99Full House5,000
3122/07 09:26BAGUYUR15Full House5,000
3222/07 09:26NICHOLASTOFull House5,000
3322/07 09:26NGENTOT212Full House500
3422/07 09:26LUAKRIENFull House2,000
3522/07 09:26OHOSG0J5HWFull House2,000
3622/07 09:26SAVAGE22Full House20,000
3722/07 09:26HOKIJP77Full House2,000
3822/07 09:26HYW64DBURBFull House2,000
3922/07 09:26IDNGPUVI88Full House2,000
4022/07 09:26GIBAZ7Full House1,000
4122/07 09:26DWBTIO1297Full House2,000
4222/07 09:26CUNGUR27Full House1,000
4322/07 09:25MAMANKDEFull House2,000
4422/07 09:25GANDOEEFull House10,000
4522/07 09:25COO012Full House1,000
4622/07 09:25PRIYO123Full House20,000
4722/07 09:25GGG0Full House5,000
4822/07 09:25SOPFull House500
4922/07 09:25ZEROSIX999Four Of A Kind25,000
5022/07 09:25LEONELSFour Of A Kind50,000

Domino Multi Jackpot System

Ikutilah global jackpot yang tersedia di system kami, dengan system jackpot terbaru dan pertama di indonesia, anda dapat membeli jackpot dengan harga 100 rupiah saja dan menangkan hadiahnya hingga puluhan juta rupiah.

Jackpot bukanlah suatu keharusan untuk dibeli, namun kami memberikan suatu fitur tambahan untuk member tercinta dari www.1xroyal.com.

Terdapat tiga pilihan harga jackpot yang bisa anda beli yaitu :100,500 dan 1000 rupiah.

Hadiah dari Multi jackpot system www.1xroyal.com

  1. Murni Kecil x 50 harga jackpot yang anda beli.
      (contoh:anda membeli 1000 maka:1000 X 50 = 50.000)
  2. Murni Besar x 50 harga jackpot yang anda beli
      (contoh:anda membeli 1000 maka:1000 X 50 = 50.000)
  3. BALAK x 100 harga jackpot yang anda beli
      (contoh:anda membeli 1000 maka:1000 X 100 = 100.000)
  4. ENAM DEWA x 6666 harga jackpot yang anda beli
      (contoh:anda membeli 1000 maka:1000 X 6666 = 6.666.000)

Demikian adalah penjelasan dari Multi Jackpot www.1xroyal.com terima kasih dan selamat bermain salam hoki dari kami

Domino Jackpot Winner

TOP ENAM DEWA
No.TanggalNamaPriceWin
122/07 04:17ON99ON99murni enam6,666,000
222/07 04:02N1KO01murni enam6,666,000
322/07 02:41BXU4HETHYImurni enam3,333,000
422/07 02:24IV4G1GS885murni enam666,600
522/07 02:14RIZAL1986murni enam6,666,000
TOP BALAK
No.TanggalNamaPriceWin
122/07 09:26REJEKI_128balak100,000
222/07 09:25SHILA17balak50,000
322/07 09:22DIREKTUR03balak10,000
422/07 09:20ALUMP99balak50,000
522/07 09:18CANP1CONbalak100,000
LATEST JACKPOT
No.TanggalNamaPriceWin
122/07 09:26NUKE02murni besar50,000
222/07 09:26REJEKI_128balak100,000
322/07 09:26MAS270lucky992,500
422/07 09:26TEMPE444murni besar5,000
522/07 09:26GIRAB_2murni besar25,000
622/07 09:26T4D0012914murni kecil50,000
722/07 09:25SHILA17balak50,000
822/07 09:23IBRO72murni kecil50,000
922/07 09:23L444B44murni kecil50,000
1022/07 09:22GODHOE11murni kecil25,000
1122/07 09:22DIREKTUR03balak10,000
1222/07 09:22B477U7Pmurni kecil25,000
1322/07 09:22FHSTGH62PTmurni kecil50,000
1422/07 09:22GUSARTHAlucky9925,000
1522/07 09:21DIREKTUR03murni kecil5,000
1622/07 09:20ALUMP99balak50,000
1722/07 09:19HANG26murni kecil50,000
1822/07 09:19HIDAYATHImurni besar5,000
1922/07 09:18S4TNF4VCDCmurni kecil5,000
2022/07 09:18CANP1CONbalak100,000
2122/07 09:18RIZALDY84murni kecil25,000
2222/07 09:18DZH88DTS5Hmurni besar50,000
2322/07 09:17RAGASA66lucky9950,000
2422/07 09:16SADOYO01murni besar5,000
2522/07 09:16LABOOOLL99murni kecil25,000
2622/07 09:16BONJOV1984murni besar50,000
2722/07 09:16KASJA82murni kecil25,000
2822/07 09:15OMULLANKmurni besar50,000
2922/07 09:15FAHMIQIUmurni kecil50,000
3022/07 09:15DJT4K1Mmurni kecil5,000
3122/07 09:14QUEN179murni besar50,000
3222/07 09:12SONGHOLmurni kecil25,000
3322/07 09:12ALIFKA21lucky9910,000
3422/07 09:12ALFREDO16murni kecil5,000
3522/07 09:10WWLGR2Fmurni kecil50,000
3622/07 09:10AMAKANEmurni kecil50,000
3722/07 09:10BABA421murni kecil50,000
3822/07 09:10CUTZZZmurni besar5,000
3922/07 09:09GIBILLQQbalak100,000
4022/07 09:09RAJESSSSSSSmurni besar50,000
4122/07 09:08SHAUNAA55murni kecil50,000
4222/07 09:08K3Y88lucky992,500
4322/07 09:08SANIRINGmurni besar50,000
4422/07 09:08DZH88DTS5Hbalak100,000
4522/07 09:07POKKPOK27balak50,000
4622/07 09:06VALKRYIEmurni besar5,000
4722/07 09:05T4D0012914murni besar50,000
4822/07 09:05TEJA25murni besar5,000
4922/07 09:04REJEKI_128murni kecil50,000
5022/07 09:02PAKLEKKUmurni besar25,000

Ceme Multi Jackpot System

Jackpot dilihat dari gabungan kartu pemain dengan kartu bandar. Bandar harus membeli jackpot sebanyak jumlah player yang sedang duduk. Sebagai contoh bila terdapat 3 pemain duduk bermain, dan bandar memutuskan untuk membeli jackpot Rp 1.000, maka pada periode tersebut bandar akan membeli jackpot sebanyak 3xRp1.000 = Rp3.000.

Jackpot bukanlah suatu keharusan untuk dibeli, namun kami memberikan suatu fitur tambahan untuk member tercinta dari www.1xroyal.com.

Terdapat tiga pilihan harga jackpot yang bisa anda beli yaitu :100,500 dan 1000 rupiah.

Hadiah dari Multi jackpot system www.1xroyal.com

  1. Murni Kecil x 50 harga jackpot yang anda beli.
      (contoh:anda membeli 1000 maka:1000 X 50 = 50.000)
  2. Murni Besar x 50 harga jackpot yang anda beli
      (contoh:anda membeli 1000 maka:1000 X 50 = 50.000)
  3. BALAK x 200 harga jackpot yang anda beli
      (contoh:anda membeli 1000 maka:1000 X 200 = 200.000)
  4. ENAM DEWA x 6666 harga jackpot yang anda beli
      (contoh:anda membeli 1000 maka:1000 X 6666 = 6.666.000)

Demikian adalah penjelasan dari Multi Jackpot www.1xroyal.com terima kasih dan selamat bermain salam hoki dari kami

Ceme Jackpot Winner

TOP ENAM DEWA
No.TanggalNamaPriceWin
122/07 09:09EGAN555murni enam3,333,000
222/07 09:09B0T4K21murni enam6,666,000
322/07 09:06DONGRAK08murni enam666,600
422/07 09:02SONIA06murni enam6,666,000
522/07 09:02LOYZ30murni enam666,600
TOP BALAK
No.TanggalNamaPriceWin
122/07 09:26D14NS3T1Abalak200,000
222/07 09:26B44DDIQ82623balak200,000
322/07 09:26GO67balak20,000
422/07 09:26HAMZULA7balak200,000
522/07 09:25PANISAHbalak200,000
LATEST JACKPOT
No.TanggalNamaPriceWin
122/07 09:26W0BPUVM1ALmurni besar50,000
222/07 09:26B2UINOKEJONmurni besar25,000
322/07 09:26FIO11111murni besar5,000
422/07 09:26QXRFDU6FB8murni besar5,000
522/07 09:26D14NS3T1Abalak200,000
622/07 09:26B44DDIQ82623balak200,000
722/07 09:26NIKEVmurni besar50,000
822/07 09:26FAIHANINA8murni besar5,000
922/07 09:26GO67balak20,000
1022/07 09:26HAMZULA7balak200,000
1122/07 09:26SHEELOmurni kecil50,000
1222/07 09:26SAPATOR88murni kecil50,000
1322/07 09:25ARGI13murni kecil50,000
1422/07 09:25AGUSHOKKmurni kecil25,000
1522/07 09:25S4RY24murni besar50,000
1622/07 09:25RIZQ37murni kecil50,000
1722/07 09:25JOKOLOH9murni kecil25,000
1822/07 09:25LK4DBIMA1973murni kecil5,000
1922/07 09:25GELMUTSmurni kecil5,000
2022/07 09:25KACONX77murni kecil5,000
2122/07 09:25XSON666murni kecil5,000
2222/07 09:25KACONX77murni kecil5,000
2322/07 09:25AWULIA85murni kecil25,000
2422/07 09:25MUS3TOP4murni kecil50,000
2522/07 09:25KITOPACAK8murni besar50,000
2622/07 09:25P1IEmurni besar25,000
2722/07 09:25PANISAHbalak200,000
2822/07 09:25EBOT2008murni kecil5,000
2922/07 09:25TAMBHENK44murni besar50,000
3022/07 09:25FIRLYTYAmurni besar50,000
3122/07 09:25BP888002murni kecil50,000
3222/07 09:24SAMPANKERmurni besar50,000
3322/07 09:24ARGI13murni besar50,000
3422/07 09:24LB882476balak100,000
3522/07 09:24LB882476balak100,000
3622/07 09:24RYANP2311balak200,000
3722/07 09:24AANDABOLmurni kecil50,000
3822/07 09:24DOLL09murni kecil50,000
3922/07 09:24BONI0401balak20,000
4022/07 09:23CICAK6789balak200,000
4122/07 09:23DINO1509balak20,000
4222/07 09:23SELOSO27murni besar50,000
4322/07 09:23IDORISmurni besar50,000
4422/07 09:23ASUS222murni besar25,000
4522/07 09:23BO9EL83murni besar50,000
4622/07 09:23UTHSSSmurni kecil5,000
4722/07 09:22FKA90balak100,000
4822/07 09:22LK4DBIMA1973murni kecil5,000
4922/07 09:22EMBEBD51murni kecil5,000
5022/07 09:22SETIANEGARbalak20,000